H-2A DEB (43240 NORAD) Tracking and Keplerian Element Data

This shows tracking and keplerian element data for the satellite.

Feedback or suggestion? Click here.




ElementValue
Catalog43240
NameH-2A DEB
Epoch Orbit36
Epoch Day87.58306923
Epoch Year2018
RAAN207.8788
Inclination97.2102
Eccentricity0.0010045
Argument of Perigee285.3174
Mean Anonmoly74.7074
Mean Motion15.24646684
Decay Rate0.00013918
L11 43240U 18021D 18087.58306923 .00013918 00000-0 56516-3 0 9993
L22 43240 97.2102 207.8788 0010045 285.3174 74.7074 15.24646684 360



Live tracking and technical data element details for H-2A DEB (NORAD 43240). H-2A DEB can be tracked NOW for your location showing map with azimuth and elevation plus other details from your city location.







IsCatalogInMostPopularTable: catalog: 43240, numindb: 384
Update: records affected: 1



GetName: 43240 H-2A DEB

Hit Count: updated at: Thu, 16 Apr 2026 05:38:59 GMT